Location: Barcelona
(41.3830°N, 2.1830°E)
Time: 16:49:46
(UTC+02:00)

ISS - Pass Details

Date: 13 March 2021
Orbit: 418 x 422 km, 51.6° (Epoch: 16 April)

Event Time Altitude Azimuth Distance (km) Brightness Sun altitude
Exits shadow 05:03:57 29° 126° (SE) 788 -2.1 -23.5°
Drops below altitude 10° 05:05:44 10° 127° (SE) 1,490 -0.5 -23.2°
Sets 05:07:50 0° 127° (SE) 2,351 0.5 -22.8°
